Regional Weather Roundup
Issued by NWS State College, PA

Home | Current Version | Previous Version | Text Only | Print | Product List | Glossary On
Versions: 1 2 3 4 5 6 7 8 9 10 11 12 13 14 15 16 17 18 19 20 21 22 23 24 25 26 27 28 29 30 31 32 33 34 35 36 37 38 39 40 41 42 43 44 45 46 47 48 49 50
000
ASUS41 KCTP 290503
RWRCTP

REGIONAL WEATHER ROUNDUP
NATIONAL WEATHER SERVICE STATE COLLEGE PA
1200 AM EST THU JAN 29 2015

Note: "fair" indicates few or no clouds below 12,000 feet with no
significant weather and/or obstructions to visibility.

* = STATION THAT DOES NOT REPORT PRECIPITATION /E.G. RAIN...SNOW...ETC/
    THUNDER OR FOG.

PAZ002>004-007>009-013>016-020>023-029>032-290600-
WESTERN PENNSYLVANIA

CITY           SKY/WX    TMP DP  RH WIND       PRES   REMARKS
ERIE           MOCLDY    22   4  46 S8        30.24F WCI  12
MEADVILLE      MOCLDY    19   4  51 VRB3      30.21F
FRANKLIN*      MOCLDY    16   5  62 S7        30.24S WCI   6
NEW CASTLE     FAIR      18   9  68 CALM      30.27S
BEAVER COUNTY  NOT AVBL
BUTLER*        MOCLDY    18   9  68 SE3       30.26F
PITTSBURGH INT CLOUDY    16  11  80 S3        30.25F
PITTSBURGH     MOCLDY    16   8  71 SE7       30.24F WCI   6
INDIANA*       CLEAR      5   3  92 CALM      30.29F
LATROBE        MOCLDY     9   7  92 CALM      30.28F
WASHINGTON CO* PTCLDY    10   7  85 CALM      30.26S
$$

PAZ004>006-010>012-017>019-024>028-033>037-041-042-045-046-049>053-290600-
CENTRAL PENNSYLVANIA

CITY           SKY/WX    TMP DP  RH WIND       PRES   REMARKS
BRADFORD       PTCLDY     2  -5  72 CALM      30.18F
DUBOIS         PTCLDY    11   3  70 CALM      30.20F
CLEARFIELD     PTCLDY     9   4  80 SW3       30.25F
JOHNSTOWN      PTCLDY    13   5  70 SW7       30.18F WCI   3
ALTOONA        PTCLDY     4   0  83 CALM      30.26F
STATE COLLEGE  PTCLDY    12   4  69 CALM      30.28S
WILLIAMSPORT   PTCLDY    11   1  64 CALM      30.32S
SELINSGROVE    PTCLDY     3  -1  83 S3        30.32S
FT INDIANTOWN  PTCLDY    16   1  51 S1        30.31R
CAPITAL CITY   PTCLDY     2  32 100 W7        30.32S WCI -11
HARRISBURG     PTCLDY    15   5  64 NW6       30.32R WCI   6
YORK           PTCLDY     8   1  73 CALM      30.31R
$$

PAZ038>040-043-044-047-048-054-055-060>062-067>071-290600-
EASTERN PENNSYLVANIA

CITY           SKY/WX    TMP DP  RH WIND       PRES   REMARKS
SCRANTON       CLEAR     13   4  67 SE3       30.28S
MOUNT POCONO   PTCLDY    13   3  64 NW8       30.18R WCI   2
ALLENTOWN      PTCLDY    21   1  41 W5        30.30R WCI  15
QUAKERTOWN*    PTCLDY    19   1  45 N3        30.29S
READING        PTCLDY    19   3  49 CALM      30.31R
LANCASTER      PTCLDY    18   5  57 W6        30.30S WCI  10
COATESVILLE    PTCLDY    23   7  50 NW10      30.28S WCI  12
POTTSTOWN      PTCLDY    16   2  54 CALM      30.31S
BLUE BELL      CLEAR     27   3  36 NW5       30.28F
DOYLESTOWN     CLEAR     21   3  45 NW9       30.28R WCI  11
WILLOW GROVE   NOT AVBL
NORTH PHILA    CLEAR     26   1  34 NW8       30.31S
PHILADELPHIA   CLEAR     28   2  32 VRB6      30.31S
$$


USA.gov is the U.S. government's official web portal to all federal, state and local government web resources and services.